This demonstration page uses our WeatherBlox Daily Observations layout. Learn more.

Left ArrowRight Arrow

Hourly Observations for February 4, 2016

Temp ( °F °C ) Dew Point ( °F °C ) Humidity (%) Winds ( mph kmh ) Pressure ( in mb ) Visibility ( mi km ) Precip ( " mm )
12:53 am 00:53 Cloudy 43 6.1 39 3.9 86 86 NW 3 6 30.51 1033 10 16 0.00 0.00
1:53 am 01:53 Cloudy 43 6.1 39 3.9 86 86 Calm 30.50 1033 10 16 0.00 0.00
2:53 am 02:53 Cloudy 43 6.1 39 3.9 86 86 N 3 6 30.51 1033 10 16 0.00 0.00
3:53 am 03:53 Cloudy 43 6.1 39 3.9 86 86 NW 3 6 30.51 1033 10 16 0.00 0.00
4:53 am 04:53 Cloudy 43 6.1 39 3.9 86 86 NW 3 6 30.51 1033 10 16 0.00 0.00
5:36 am 05:36 Cloudy 43 6 39 4 87 87 Calm 30.50 1033 10 16 0.00 0.00
5:44 am 05:44 Cloudy 43 6 39 4 87 87 Calm 30.50 1033 10 16 0.00 0.00
5:53 am 05:53 Cloudy 43 6.1 39 3.9 86 86 Calm 30.50 1033 10 16 0.00 0.00
6:53 am 06:53 Mostly Clear 42 5.6 38 3.3 85 85 Calm 30.51 1033 10 16 0.00 0.00
7:53 am 07:53 Mostly Sunny 42 5.6 38 3.3 85 85 N 5 7 30.51 1033 10 16 0.00 0.00
8:53 am 08:53 Sunny 44 6.7 39 3.9 83 83 NNW 5 7 30.53 1034 10 16 0.00 0.00
9:53 am 09:53 Sunny 47 8.3 40 4.4 77 77 N 7 11 30.51 1033 10 16 0.00 0.00
10:53 am 10:53 Sunny 51 10.6 40 4.4 66 66 NNW 9 15 30.51 1033 10 16 0.00 0.00
11:53 am 11:53 Sunny 55 12.8 39 3.9 55 55 N 10 17 30.48 1032 10 16 0.00 0.00
12:53 pm 12:53 Sunny 57 13.9 37 2.8 47 47 N 6 9 30.44 1031 10 16 0.00 0.00
1:53 pm 13:53 Sunny 59 15 37 2.8 44 44 N 7 11 30.40 1030 10 16 0.00 0.00
2:53 pm 14:53 Sunny 60 15.6 38 3.3 44 44 VRB 7 11 30.39 1029 10 16 0.00 0.00
3:53 pm 15:53 Sunny 60 15.6 38 3.3 44 44 NNW 6 9 30.37 1029 10 16 0.00 0.00
4:53 pm 16:53 Sunny 59 15 40 4.4 49 49 WNW 5 7 30.36 1028 10 16 0.00 0.00
5:53 pm 17:53 Clear 55 12.8 40 4.4 57 57 WNW 6 9 30.37 1028 10 16 0.00 0.00
6:53 pm 18:53 Clear 54 12.2 40 4.4 59 59 NW 7 11 30.37 1029 10 16 0.00 0.00
7:53 pm 19:53 Clear 52 11.1 40 4.4 64 64 NNW 7 11 30.38 1029 10 16 0.00 0.00
8:53 pm 20:53 Clear 51 10.6 39 3.9 64 64 NNW 5 7 30.37 1029 10 16 0.00 0.00
9:53 pm 21:53 Clear 49 9.4 39 3.9 69 69 NW 7 11 30.38 1029 10 16 0.00 0.00
10:53 pm 22:53 Clear 47 8.3 39 3.9 74 74 NNW 5 7 30.38 1029 10 16 0.00 0.00
11:53 pm 23:53 Clear 44 6.7 37 2.8 76 76 NNE 3 6 30.38 1029 10 16 0.00 0.00

Powered by AerisWeather